Вернуться в каталог

BSAT-1B

АктивенСвязьGEO
NORAD 25312·PAYLOAD·🇯🇵 Japan

Запущен Apr 28, 1998 с Guiana Space Centre

Loading…

TLE

СвежийSource: Space-Track

Эпоха: Sep 14, 2026, 17:05 UTC

1 25312U 98024B   26257.71226733 -.00000259  00000-0  00000-0 0  9996
2 25312  11.6688  43.7269 0003970 223.2613 315.7364  0.99122192 47043

Отслеживайте BSAT-1B в реальном времени с AllMySat

Download on the App Store